User: anonymous   Login
Location: Unspecified
(0.0000°N, 0.0000°E)
Time: 18:32:44
(UTC+00:00)
Language:

N. Korean satellite - Orbit

View from above orbital plane
View from above orbital plane
View from above satellite
View from above satellite

Ground track
Ground track

The orbit data is extracted from the following two-line orbital elements,

1 39026U 12072A   16179.53257524  .00001812  00000-0  76542-4 0  9999
2 39026  97.2476 203.3963 0042137 353.5879   6.4814 15.23723395195952
Epoch (UTC): 27 June 2016 12:46:54
Eccentricity: 0.0042137
inclination: 97.2476°
perigee height: 465 km
apogee height: 523 km
right ascension of ascending node: 203.3963°
argument of perigee: 353.5879°
revolutions per day: 15.23723395
mean anomaly at epoch: 6.4814°
orbit number at epoch: 19595

The dashed part of the orbit path shows where the satellite is in the earth's shadow,  

DLR